Content
SEND FEEDBACK

Daily
Averages
Monthly
Summary
United States of America

YIGO, GUAM


Home > North America > United States > Guam
Elevation: 162 meters     Latitude: 13 32N     Longitude: 144 53E

WEATHER
 
SELECT A DAY
Number of Records: 209,106;   Date Range: 1/1/95 - 8/12/14
 
SHARE

PRINT THIS DATA

[ ← Previous Day ]
WEATHER ALMANAC - 4 MAY, 2013
[ Next Day → ]
[ °F ]   °C
Weather ElementAverageHighLow
Temperature29.3 °C31.7 °C (11:54 am)27 °C (3:03 am)
Dewpoint24.4 °C26 °C (2:40 am)22 °C (5:10 pm)
Humidity75.4 %89 % (2:40 am)58 % (5:10 pm)
Barometer1013.5 hPa1014.9 hPa (9:54 pm)1012.2 hPa (3:54 am)
Wind Speed14 km/h24.1 km/h (11:11 am)
Wind Gust35.2 km/h (8:54 am)
Weather ElementAverage
Visibility14 km
Wind DirectionENE (81.7 °)

Weather ElementTotal
Precipitation0.25 mm
Cooling Degree Days11.1 (Base 18.3)
Growing Degree Days19.4 (Base 10)
Averaged from 35 records on 4 May, 2013
WEATHER CONDITIONS BREAKOUT
WIND DIRECTION BREAKOUT
WEATHER BY HOUR - 4 MAY, 2013
[ °F ]   °C
Local TimeTemperatureDewpointHumidityBarometerVisibilityWind DirectionWind SpeedGust SpeedPrecipitationEventsConditions
1:54 AM27.8 °C25.6 °C88 %1012.5 hPa16.1 kmEast (80°)9.3 km/hPartly Cloudy
2:40 AM28 °C26 °C89 %1013.2 hPa16.1 kmCalm0 mmMostly Cloudy
2:49 AM28 °C26 °C89 %1013.2 hPa16.1 kmCalm0 mmOvercast
2:54 AM27.2 °C25 °C88 %1012.5 hPa16.1 kmCalm0 mmMostly Cloudy
3:03 AM27 °C25 °C89 %1013.2 hPa16.1 kmCalmMostly Cloudy
3:10 AM27 °C25 °C89 %1013.2 hPa16.1 kmEast (80°)5.6 km/hScattered Clouds
3:54 AM27.8 °C25 °C85 %1012.2 hPa16.1 kmEast (90°)9.3 km/hPartly Cloudy
4:54 AM27.2 °C24.4 °C85 %1012.2 hPa16.1 kmEast (90°)9.3 km/hPartly Cloudy
5:54 AM27.8 °C25 °C85 %1012.5 hPa16.1 kmEast (90°)9.3 km/hClear
6:54 AM28.3 °C25 °C82 %1012.9 hPa16.1 kmEast (90°)16.7 km/hScattered Clouds
7:54 AM28.9 °C25 °C79 %1013.2 hPa16.1 kmEast (100°)14.8 km/hMostly Cloudy
8:54 AM29.4 °C25 °C77 %1013.9 hPa16.1 kmEast (100°)22.2 km/h35.2 km/h0 mmClear
9:25 AM29 °C25 °C79 %1014.6 hPa4 kmEast (100°)16.7 km/h0 mmRainLight Rain
9:33 AM29 °C25 °C79 %1014.6 hPa16.1 kmEast (100°)16.7 km/h0 mmPartly Cloudy
9:54 AM30 °C24.4 °C72 %1013.9 hPa16.1 kmEast (100°)20.4 km/h31.5 km/h0 mmScattered Clouds
10:54 AM30.6 °C24.4 °C69 %1013.5 hPa16.1 kmEast (90°)22.2 km/hPartly Cloudy
11:11 AM31 °C24 °C66 %1014.2 hPa1.9 kmEast (90°)24.1 km/hHaze
11:19 AM31 °C24 °C66 %1014.2 hPa1.3 kmEast (90°)24.1 km/hHaze
11:27 AM31 °C24 °C66 %1014.2 hPa2.4 kmEast (100°)24.1 km/hHaze
11:34 AM31 °C24 °C66 %1014.2 hPa16.1 kmEast (90°)18.5 km/h35.2 km/hPartly Cloudy
11:54 AM31.7 °C24.4 °C65 %1013.2 hPa16.1 kmESE (110°)20.4 km/hPartly Cloudy
12:54 PM31.1 °C23.9 °C65 %1012.9 hPa16.1 kmESE (120°)14.8 km/hScattered Clouds
1:54 PM31.1 °C23.9 °C65 %1012.2 hPa16.1 kmEast (100°)16.7 km/h35.2 km/hScattered Clouds
2:54 PM31.1 °C23.3 °C63 %1012.2 hPa16.1 kmEast (90°)22.2 km/h31.5 km/hPartly Cloudy
3:54 PM29.4 °C25 °C77 %1012.2 hPa16.1 kmEast (90°)13 km/h0.25 mmRainLight Rain
4:54 PM30.6 °C22.8 °C63 %1012.2 hPa16.1 kmEast (90°)16.7 km/h0 mmScattered Clouds
5:10 PM31 °C22 °C58 %1013.2 hPa2.9 kmESE (110°)20.4 km/hHaze
5:12 PM31 °C22 °C58 %1013.2 hPa11.3 kmEast (100°)16.7 km/hMostly Cloudy
5:54 PM30 °C23.3 °C67 %1012.9 hPa16.1 kmEast (90°)18.5 km/hScattered Clouds
6:54 PM28.9 °C24.4 °C76 %1013.5 hPa16.1 kmEast (80°)11.1 km/hScattered Clouds
7:54 PM28.3 °C24.4 °C79 %1013.9 hPa16.1 kmEast (80°)13 km/hPartly Cloudy
8:54 PM28.3 °C24.4 °C79 %1014.6 hPa16.1 kmEast (80°)9.3 km/hPartly Cloudy
9:54 PM28.3 °C24.4 °C79 %1014.9 hPa16.1 kmEast (80°)11.1 km/hPartly Cloudy
10:54 PM28.3 °C24.4 °C79 %1014.9 hPa16.1 kmEast (80°)11.1 km/hScattered Clouds
11:54 PM28.3 °C23.9 °C77 %1014.2 hPa16.1 kmEast (80°)13 km/hPartly Cloudy
Hourly data recorded from PGUM, located 0 kilometers away from Yigo, Guam







STORIES FROM OUR PARTNERS